Juliana Airport, Sint Maarten

2:40 AM AST on February 25, 2018 (GMT -0400)
Princess Juliana International

Weather History for TNCM - December, 2012

Change the Weather History Date:

Wednesday, December 12, 2012

  Actual Average Record
Temperature  
Mean Temperature 81 °F -  
Max Temperature 84 °F 82 °F 86 °F (1997)
Min Temperature 78 °F 73 °F 71 °F (2007)
Cooling Degree Days 16    
Growing Degree Days 31 (Base 50)    
Moisture  
Dew Point 69 °F    
Average Humidity 65    
Maximum Humidity 78    
Minimum Humidity 51    
Precipitation  
Precipitation 0.00 in 0.10 in - ()
Sea Level Pressure  
Sea Level Pressure 29.99 in    
Wind  
Wind Speed 16 mph ()    
Max Wind Speed 22 mph    
Max Gust Speed 31 mph    
Visibility 8.6 miles    
Events Rain    
Averages and records for this station are not official NWS values.
T = Trace of Precipitation, MM = Missing Value Source: Averaged Metar Reports

Daily Weather History Graph

Daily Weather History Graph

Search for Another Location

Airport or City:

Trip Planner

Search our weather history database for the weather conditions in past years. The results will help you decide how hot, cold, wet, or windy it might be!

Date:

Astronomy

Dec. 12, 2012 Rise Set
Actual Time 6:34 AM AST 5:38 PM AST
Civil Twilight 6:10 AM AST 6:02 PM AST
Nautical Twilight 5:43 AM AST 6:29 PM AST
Astronomical Twilight 5:16 AM AST 6:56 PM AST
Moon 5:37 AM AST (12/12) 5:08 PM AST (12/12)
Length of Visible Light 11h 51m
Length of Day
11h 03m
Waning Crescent, 1% of the Moon is Illuminated
Dec 12
Waning Crescent
Dec 13
New
Dec 20
First Quarter
Dec 28
Full
Jan 4
Last Quarter

Hourly Weather History & Observations

Time (AST) Temp. Heat Index Dew Point Humidity Pressure Visibility Wind Dir Wind Speed Gust Speed Precip Events Conditions
12:00 AM 80.6 °F 83.9 °F 69.8 °F 70% 30.01 in 6.2 mi East 17.3 mph - N/A Rain Light Rain Showers
1:00 AM 80.6 °F 83.9 °F 69.8 °F 70% 29.98 in 6.2 mi East 19.6 mph - N/A   Partly Cloudy
2:00 AM 80 °F - 69 °F 62% 29.99 in 16 mi ESE 21.9 mph - -   Partly Cloudy
2:00 AM 80.6 °F 83.9 °F 69.8 °F 70% 29.98 in 6.2 mi East 20.7 mph - N/A   Partly Cloudy
3:00 AM 80.6 °F 83.9 °F 69.8 °F 70% 29.95 in 6.2 mi East 19.6 mph - N/A   Partly Cloudy
4:00 AM 80.6 °F 83.9 °F 69.8 °F 70% 29.95 in 6.2 mi East 19.6 mph - N/A   Partly Cloudy
5:00 AM 80 °F - 70 °F 65% 29.98 in 16 mi East 17.3 mph - -   Scattered Clouds
5:00 AM 80.6 °F 83.9 °F 69.8 °F 70% 29.98 in 6.2 mi East 17.3 mph 31.1 mph N/A   Partly Cloudy
6:00 AM 80.6 °F 83.9 °F 69.8 °F 70% 29.98 in 6.2 mi East 21.9 mph - N/A   Partly Cloudy
7:00 AM 80.6 °F 83.9 °F 69.8 °F 70% 30.01 in 6.2 mi East 18.4 mph - N/A   Partly Cloudy
8:00 AM 81 °F - 69 °F 59% 30.04 in 22 mi ESE 17.3 mph - -   Scattered Clouds
8:00 AM 80.6 °F 83.9 °F 69.8 °F 70% 30.04 in 6.2 mi East 17.3 mph - N/A   Partly Cloudy
9:00 AM 82.4 °F 86.3 °F 69.8 °F 66% 30.04 in 6.2 mi East 15.0 mph - N/A   Scattered Clouds
10:00 AM 82.4 °F 86.3 °F 69.8 °F 66% 30.04 in 6.2 mi East 17.3 mph 29.9 mph N/A   Scattered Clouds
11:00 AM 84 °F - 70 °F 54% 30.05 in 25 mi East 17.3 mph - -   Mostly Cloudy
11:00 AM 84.2 °F 88.4 °F 69.8 °F 62% 30.04 in 6.2 mi East 17.3 mph 29.9 mph N/A   Mostly Cloudy
12:00 PM 84.2 °F 89.6 °F 71.6 °F 66% 30.01 in 6.2 mi East 16.1 mph - N/A   Scattered Clouds
1:00 PM 84.2 °F 88.4 °F 69.8 °F 62% 30.01 in 6.2 mi East 19.6 mph - N/A   Scattered Clouds
2:00 PM 84 °F - 69 °F 51% 29.99 in 19 mi East 16.1 mph - -   Partly Cloudy
2:00 PM 84.2 °F 87.3 °F 68.0 °F 58% 29.98 in 6.2 mi East 16.1 mph 29.9 mph N/A   Scattered Clouds
3:00 PM 84.2 °F 87.3 °F 68.0 °F 58% 29.98 in 6.2 mi East 16.1 mph - N/A   Scattered Clouds
4:00 PM 82.4 °F 86.3 °F 69.8 °F 66% 29.95 in 6.2 mi ENE 15.0 mph - N/A   Scattered Clouds
5:00 PM 82 °F - 68 °F 55% 29.98 in 19 mi ENE 15.0 mph - -   Scattered Clouds
5:00 PM 82.4 °F 85.4 °F 68.0 °F 62% 29.98 in 6.2 mi ENE 15.0 mph - N/A   Partly Cloudy
6:00 PM 80.6 °F 83.2 °F 68.0 °F 65% 29.98 in 6.2 mi ENE 16.1 mph - N/A   Partly Cloudy
7:00 PM 80.6 °F 82.7 °F 66.2 °F 61% 29.98 in 6.2 mi ENE 13.8 mph - N/A   Partly Cloudy
8:00 PM 80 °F - 69 °F 63% 29.99 in 19 mi ENE 12.7 mph - - Rain Light Rain Showers
8:00 PM 80.6 °F 83.9 °F 69.8 °F 70% 29.98 in 6.2 mi ENE 12.7 mph - N/A Rain Light Rain Showers
9:00 PM 80.6 °F 83.9 °F 69.8 °F 70% 29.98 in 6.2 mi ENE 16.1 mph - N/A   Partly Cloudy
10:00 PM 78.8 °F - 69.8 °F 74% 29.98 in 6.2 mi ENE 15.0 mph - N/A   Partly Cloudy
11:00 PM 79 °F - 71 °F 70% 29.99 in 19 mi East 17.3 mph - -   Partly Cloudy
11:00 PM 78.8 °F - 71.6 °F 78% 29.98 in 6.2 mi East 15.0 mph - N/A   Scattered Clouds